AirNav   Phillips 66 Aviation Fuel
 
 575 users online  

3G2 Grygla Municipal Airport-Mel Wilkens Field
Grygla, Minnesota, USA

GOING TO GRYGLA?


FAA INFORMATION EFFECTIVE 06 DECEMBER 2018

Location

FAA Identifier: 3G2
Lat/Long: 48-17-38.7000N / 095-37-33.5000W
48-17.645000N / 095-37.558333W
48.2940833 / -95.6259722
(estimated)
Elevation: 1177 ft. / 359 m (estimated)
Variation: 04E (1995)
From city: 1 mile SW of GRYGLA, MN
Time zone: UTC -6 (UTC -5 during Daylight Saving Time)
Zip code: 56727

Airport Operations

Airport use: Open to the public
Activation date: 02/2000
Control tower: no
ARTCC: MINNEAPOLIS CENTER
FSS: PRINCETON FLIGHT SERVICE STATION
NOTAMs facility: PNM (NOTAM-D service available)
Attendance: UNATNDD
Wind indicator: lighted
Segmented circle: no
Lights: SS-SR
Beacon: white-green (lighted land airport)
Operates sunset to sunrise.

Airport Communications

CTAF: 122.9

Nearby radio navigation aids

VOR radial/distance  VOR name  Freq  Var
TVFr051/26.2THIEF RIVER FALLS VOR/DME108.4008E
ROXr170/33.8ROSEAU VOR/DME108.8005E

Airport Services

Parking: tiedowns
Airframe service: NONE
Powerplant service: NONE
Bottled oxygen: NONE
Bulk oxygen: NONE

Runway Information

Runway 17/35

Dimensions: 3437 x 92 ft. / 1048 x 28 m
Surface: turf, in good condition
Runway edge lights: low intensity
Runway edge markings: RY 17/35 MARKED WITH YELLOW CONES.
RUNWAY 17  RUNWAY 35
Latitude: 48-17.926333N48-17.363500N
Longitude: 095-37.598000W095-37.518833W
Traffic pattern: leftleft

Airport Ownership and Management from official FAA records

Ownership: Publicly-owned
Owner: CITY OF GRYGLA
219 W BELTRAMI ST., P.O. BOX 76
GRYGLA, MN 56727
Phone 218-294-6292
Manager: ROCKY HAGEN
219 W BELTRAMI STREET, P.O. BOX 76
GRYGLA, MN 56727
Phone 218-294-6728
CELL: 218-689-3271

Airport Operational Statistics

Aircraft operations: avg 33/month *
50% transient general aviation
50% local general aviation
* for 12-month period ending 31 May 2017

Additional Remarks

ULTRALIGHT TRAFFIC ON & INVOF ARPT.
DEER ON & INVOF ARPT.
AIRPORT NOT PLOWED WINTER MONTHS.

Instrument Procedures

There are no published instrument procedures at 3G2.

Some nearby airports with instrument procedures:

KTVF - Thief River Falls Regional Airport (26 nm SW)
KROX - Roseau Municipal Airport/Rudy Billberg Field (34 nm N)
KRRT - Warroad International Memorial Airport (40 nm N)
KFSE - Fosston Municipal Airport-Anderson Field (42 nm S)
D37 - Warren Municipal Airport (44 nm W)
 
Loc | Ops | Rwys | IFR | FBO | Links
Com | Nav | Svcs | Stats | Notes


 
Area around 3G2 (Grygla Municipal Airport-Mel Wilkens Field)
 
Road maps at: MapQuest Bing Google
 
Aerial photo
No photo
 
Sectional chart

 
Airport distance calculator
Flying to Grygla Municipal Airport-Mel Wilkens Field? Find the distance to fly.

From to 3G2

Sunrise and sunset
Times for 12-Dec-2018
 Local
(UTC-6)
 Zulu
(UTC)
Morning civil twilight07:2913:29
Sunrise08:0514:05
Sunset16:2722:27
Evening civil twilight17:0423:04

Current date and time
Zulu (UTC)  12-Dec-2018 12:02:19
Local (UTC-6)  12-Dec-2018 06:02:19
 
METAR
KTVF 
26nm SW 
121156Z AUTO 16007KT 5SM BR OVC005 M03/M04 A2970 RMK AO2 SLP077 60000 T10331039 11028 21033 56011 FZRANO
KROX 
33nm N 
121144Z AUTO 18009KT 10SM OVC008 M02/M05 A2969 RMK AO2
KRRT 
40nm N 
121155Z AUTO 17006KT 10SM OVC017 M03/M05 A2970 RMK AO2
KFSE 
43nm S 
121155Z AUTO 16005KT 10SM OVC009 M04/M07 A2971 RMK AO2
KVWU 
45nm E 
121155Z AUTO 14005KT 5SM BR OVC003 M08/M08 A2972 RMK AO2
KCKN 
48nm SW 
121155Z AUTO 18007KT 2 1/2SM BR OVC003 M02/M03 A2971 RMK AO2
KBDE 
48nm NE 
121153Z AUTO 14006KT 10SM CLR M08/M09 A2971 RMK AO2 SLP081 70001 T10831094 11033 21083 58011
TAF
KTVF 
26nm SW 
121139Z 1212/1312 17006KT 4SM BR OVC005 FM121600 17011KT P6SM OVC007 FM130000 16013KT P6SM BKN035 FM130600 20012KT 4SM -SN BKN008
NOTAMs
Click for the latest NOTAMs
NOTAMs are issued by the DoD/FAA and will open in a separate window not controlled by AirNav.

 

 
 

Would you like to see your business listed on this page?

 If your business provides an interesting product or service to pilots, flight crews, aircraft, or users of the Grygla Municipal Airport-Mel Wilkens Field, you should consider listing it here.  To start the listing process, click on the button below
 
Add a business
 

Other Pages about Grygla Municipal Airport-Mel Wilkens Field

Update a link
 
Copyright © AirNav, LLC. All rights reserved. Privacy Policy  Contact